Change the Weather History Date:

Sunday, December 16, 2012

  Actual Average Record
Temperature  
Mean Temperature 50 °F -  
Max Temperature 60 °F 42 °F 73 °F (1984)
Min Temperature 41 °F 24 °F -9 °F (1989)
Degree Days  
Heating Degree Days 14    
Moisture  
Dew Point 48 °F    
Average Humidity 90    
Maximum Humidity 100    
Minimum Humidity 63    
Precipitation  
Precipitation 0.00 in - - ()
Sea Level Pressure  
Sea Level Pressure 29.74 in    
Wind  
Wind Speed 5 mph (SSW)    
Max Wind Speed 10 mph    
Max Gust Speed 17 mph    
Visibility 10 miles    
Events Fog    
Averages and records for this station are not official NWS values.
T = Trace of Precipitation, MM = Missing Value Source: NWS Daily Summary

Daily Weather History Graph

Daily Weather History Graph

Search for Another Location

Airport or City:

Trip Planner

Search our weather history database for the weather conditions in past years. The results will help you decide how hot, cold, wet, or windy it might be!

Date:

Astronomy

Dec. 16, 2012 Rise Set
Actual Time 7:05 AM CST 4:38 PM CST
Civil Twilight 6:35 AM CST 5:08 PM CST
Nautical Twilight 6:02 AM CST 5:41 PM CST
Astronomical Twilight 5:30 AM CST 6:13 PM CST
Moon 9:41 AM CST (12/16) 8:49 PM CST (12/16)
Length of Visible Light 10h 32m
Length of Day
9h 33m
Waxing Crescent, 16% of the Moon is Illuminated
Dec 16
Waxing Crescent
Dec 19
First Quarter
Dec 28
Full
Jan 4
Last Quarter
Jan 11
New

Hourly Weather History & Observations

Time (CST) Temp. Windchill Dew Point Humidity Pressure Visibility Wind Dir Wind Speed Gust Speed Precip Events Conditions
12:15 AM 60.8 °F - 55.4 °F 82% 29.75 in 10.0 mi SW 10.4 mph 17.3 mph N/A   Clear
12:35 AM 59.0 °F - 55.4 °F 88% 29.75 in 10.0 mi SW 8.1 mph - N/A   Clear
12:55 AM 59.0 °F - 55.4 °F 88% 29.75 in 10.0 mi SW 6.9 mph - N/A   Clear
1:15 AM 59.0 °F - 53.6 °F 82% 29.74 in 10.0 mi SSW 4.6 mph - N/A   Clear
1:35 AM 57.2 °F - 53.6 °F 88% 29.74 in 10.0 mi SW 6.9 mph - N/A   Clear
1:55 AM 57.2 °F - 53.6 °F 88% 29.75 in 10.0 mi SW 5.8 mph - N/A   Clear
2:15 AM 57.2 °F - 53.6 °F 88% 29.76 in 10.0 mi SSW 6.9 mph - N/A   Clear
2:35 AM 55.4 °F - 53.6 °F 94% 29.75 in 10.0 mi SSW 5.8 mph - N/A   Clear
2:55 AM 55.4 °F - 53.6 °F 94% 29.75 in 10.0 mi SW 5.8 mph - N/A   Clear
3:15 AM 55.4 °F - 51.8 °F 88% 29.75 in 10.0 mi SW 5.8 mph - N/A   Clear
3:35 AM 55.4 °F - 51.8 °F 88% 29.76 in 10.0 mi SW 4.6 mph - N/A   Clear
3:55 AM 51.8 °F - 48.2 °F 88% 29.75 in 10.0 mi Calm Calm - N/A   Clear
4:15 AM 50.0 °F - 46.4 °F 87% 29.75 in 10.0 mi SSW 4.6 mph - N/A   Clear
4:35 AM 48.2 °F - 46.4 °F 93% 29.75 in 10.0 mi SSW 5.8 mph - N/A   Clear
4:55 AM 48.2 °F - 46.4 °F 93% 29.75 in 7.0 mi SSW 4.6 mph - N/A   Clear
5:15 AM 48.2 °F - 46.4 °F 93% 29.75 in 1.8 mi SSW 4.6 mph - N/A   Mist
5:35 AM 46.4 °F 43.5 °F 46.4 °F 100% 29.76 in 1.0 mi SSW 5.8 mph - N/A   Mist
6:55 AM 48.2 °F - 48.2 °F 100% 29.76 in 10.0 mi SSW 5.8 mph - N/A   Overcast
7:55 AM 48.2 °F - 48.2 °F 100% 29.77 in 15.0 mi SSW 4.6 mph - N/A   Overcast
8:55 AM 53.6 °F - 53.6 °F 100% 29.79 in 20.0 mi SW 5.8 mph - N/A   Mostly Cloudy
9:55 AM 55.4 °F - 48.2 °F 77% 29.78 in 20.0 mi WSW 6.9 mph - N/A   Mostly Cloudy
10:55 AM 57.2 °F - 46.4 °F 67% 29.77 in 20.0 mi WSW 4.6 mph - N/A   Mostly Cloudy
11:55 AM 57.2 °F - 44.6 °F 63% 29.73 in 20.0 mi WSW 5.8 mph - N/A   Mostly Cloudy
12:53 PM 57.2 °F - 48.2 °F 72% 29.71 in 20.0 mi South 8.1 mph - N/A   Mostly Cloudy
1:54 PM 57.2 °F - 48.2 °F 72% 29.69 in 20.0 mi South 8.1 mph - N/A   Mostly Cloudy
2:53 PM 55.4 °F - 48.2 °F 77% 29.68 in 20.0 mi Calm Calm - N/A   Mostly Cloudy
3:53 PM 53.6 °F - 48.2 °F 82% 29.67 in 20.0 mi ESE 4.6 mph - N/A   Mostly Cloudy
4:56 PM 53.6 °F - 48.2 °F 82% 29.70 in 20.0 mi SSE 5.8 mph - N/A   Mostly Cloudy
5:22 PM 51.8 °F - 46.4 °F 82% 29.70 in 20.0 mi SSE 6.9 mph - N/A   Scattered Clouds
5:53 PM 53.6 °F - 48.2 °F 82% 29.71 in 20.0 mi South 5.8 mph - N/A   Clear
6:55 PM 44.6 °F - 42.8 °F 93% 29.72 in 10.0 mi Calm Calm - N/A   Clear
7:15 PM 42.8 °F - 42.8 °F 100% 29.72 in 7.0 mi Calm Calm - N/A   Clear
7:35 PM 44.6 °F - 44.6 °F 100% 29.73 in 5.0 mi Calm Calm - N/A   Clear
7:55 PM 48.2 °F - 48.2 °F 100% 29.73 in 10.0 mi SSW 3.5 mph - N/A   Clear
8:15 PM 46.4 °F 45.2 °F 46.4 °F 100% 29.73 in 7.0 mi South 3.5 mph - N/A   Clear
8:35 PM 46.4 °F - 44.6 °F 93% 29.74 in 1.0 mi Calm Calm - N/A   Mist
8:55 PM 46.4 °F 45.2 °F 44.6 °F 93% 29.73 in 0.2 mi South 3.5 mph - N/A Fog Fog
9:15 PM 46.4 °F 45.2 °F 46.4 °F 100% 29.73 in 0.5 mi South 3.5 mph - N/A Fog Fog
9:35 PM 46.4 °F - 46.4 °F 100% 29.73 in 0.2 mi Calm Calm - N/A Fog Fog
9:55 PM 41.0 °F - 41.0 °F 100% 29.73 in 0.2 mi Calm Calm - N/A Fog Fog
10:15 PM 41.0 °F 39.0 °F 41.0 °F 100% 29.74 in 0.2 mi North 3.5 mph - N/A Fog Fog
10:35 PM 42.8 °F - 42.8 °F 100% 29.74 in 0.5 mi Calm Calm - N/A Fog Fog
10:55 PM 42.8 °F - 42.8 °F 100% 29.74 in 0.5 mi Calm Calm - N/A Fog Fog
11:15 PM 44.6 °F - 42.8 °F 93% 29.74 in 0.5 mi Calm Calm - N/A Fog Fog
11:35 PM 42.8 °F - 42.8 °F 100% 29.75 in 0.5 mi Calm Calm - N/A Fog Fog
11:55 PM 44.6 °F - 44.6 °F 100% 29.75 in 1.8 mi Calm Calm - N/A   Mist